sat.trackr.live / text

‹ back to catalog

STARLINK-11601 [DTC]

NORAD 63110 · 2025-039G

PAYLOAD ACTIVE UNKNOWN

§ Identity

Operator
Country
US
Launch date
2025-02-27
Launch site
AFETR
Launch vehicle
Mass (kg)
RCS (m²)

Purposes: comms

External: N2YO · Heavens-Above · Gunter

§ Orbital elements

Epoch: 2026-05-25T00:58:51.631104Z

Period
91.66 min
Inclination
43.0005°
Eccentricity
0.0002092
Mean motion
15.70957674 rev/d
Perigee alt
354.7 km
Apogee alt
357.6 km
Semi-major
6,734.3 km
B*
1.7233e-3
RAAN
136.6146°
Arg perigee
231.5396°
Mean anomaly
128.5284°
Rev number
7,162

§ Raw data

STARLINK-11601 [DTC]1 63110U 25039G   26145.04087536  .00227971  00000+0  17233-2 0  99962 63110  43.0005 136.6146 0002092 231.5396 128.5284 15.70957674 71621

JSON: /api/v1/satellites/63110 · /tle

For live sub-satellite position, see the globe view (requires WebGL).

§ Visibility from observer

Set your observer location to see the next 7 days of passes ≥ 10°. The values pass through the URL so the page stays shareable.

No JS? Fill the form by hand. The geolocation button needs JavaScript.